Total_Precipitation_Accumulation
0.06 0.10 0.17 0.15 0.11 0.19 0.20 0.21 0.30 0.36 0.31 0.40 0.55 0.73 1.00 1.16 1.41 1.70 1.68 1.64 1.69 1.96 2.28 2.48 2.88 3.28 3.56 3.72 3.84 4.16 4.34 4.12 3.67 3.28 2.82 2.71 2.68 2.46 2.26 2.17 2.01 2.17 2.11 2.33
0.06 0.09 0.09 0.07 0.07 0.12 0.16 0.18 0.30 0.37 0.32 0.38 0.56 0.91 1.13 1.19 1.24 1.39 1.48 1.41 1.50 1.81 1.91 1.99 2.14 2.49 2.71 2.95 3.23 3.57 3.80 3.68 3.10 2.87 2.72 2.64 2.61 2.45 2.49 2.38 2.36 2.10 2.08 2.30
0.05 0.07 0.07 0.06 0.06 0.09 0.15 0.16 0.22 0.31 0.36 0.48 0.62 1.28 1.38 1.18 1.12 1.06 1.19 1.25 1.24 1.44 1.66 1.76 1.78 1.89 2.15 2.74 2.97 2.87 3.13 3.32 3.05 2.96 2.92 2.83 2.79 2.60 2.70 2.67 2.55 2.18 2.02 2.02
0.04 0.05 0.04 0.06 0.06 0.07 0.14 0.13 0.14 0.19 0.29 0.60 0.71 1.39 1.47 1.25 1.31 1.07 1.02 1.06 1.00 0.99 1.26 1.46 1.42 1.48 1.72 2.03 2.33 2.68 3.00 3.09 3.01 2.90 2.73 2.64 2.43 2.37 2.40 2.39 2.40 2.27 2.14 2.02
0.05 0.04 0.03 0.05 0.06 0.06 0.09 0.09 0.11 0.18 0.31 0.55 0.70 1.14 1.40 1.25 1.49 1.17 0.84 0.71 0.67 0.67 0.81 0.98 1.12 1.25 1.33 1.49 1.91 2.47 2.93 3.15 3.05 2.73 2.60 2.71 2.56 2.46 2.44 2.32 2.50 2.36 2.21 2.05
0.05 0.04 0.04 0.04 0.05 0.05 0.05 0.09 0.21 0.36 0.53 0.94 0.91 1.00 1.33 1.14 0.97 0.78 0.64 0.56 0.55 0.59 0.62 0.71 0.82 1.06 1.21 1.29 1.57 2.03 2.47 2.77 2.84 2.65 2.53 2.60 2.69 2.67 2.53 2.39 2.36 2.19 2.14 2.08
0.09 0.09 0.06 0.04 0.04 0.06 0.05 0.11 0.42 0.71 0.96 1.10 0.72 0.92 1.28 0.86 0.70 0.64 0.60 0.59 0.52 0.49 0.62 0.74 0.82 0.96 0.99 1.06 1.33 1.64 1.87 2.09 2.31 2.48 2.53 2.45 2.62 2.68 2.46 2.24 2.28 2.24 2.07 2.08
0.12 0.19 0.10 0.06 0.06 0.07 0.07 0.10 0.27 0.46 0.57 0.68 0.71 1.37 1.29 0.71 0.59 0.52 0.49 0.49 0.50 0.60 0.66 0.74 0.90 0.97 0.92 0.97 1.20 1.42 1.62 1.88 2.15 2.34 2.41 2.33 2.27 2.18 2.14 2.28 2.18 2.17 2.15 2.10
0.06 0.08 0.07 0.07 0.06 0.07 0.07 0.09 0.14 0.21 0.28 0.52 0.86 1.06 0.82 0.52 0.51 0.52 0.47 0.50 0.55 0.66 0.78 0.85 0.98 1.02 0.92 0.99 1.21 1.36 1.56 1.73 1.88 2.19 2.36 2.25 2.19 2.02 1.98 2.04 2.02 1.97 2.11 2.08
0.04 0.05 0.06 0.06 0.06 0.07 0.08 0.09 0.14 0.16 0.24 0.42 0.73 0.98 1.04 0.79 0.66 0.55 0.54 0.58 0.60 0.73 0.90 1.01 1.00 1.04 1.01 1.08 1.31 1.37 1.48 1.57 1.60 1.76 1.84 1.75 1.95 1.96 2.06 2.04 1.94 1.87 1.87 1.91
0.04 0.04 0.05 0.06 0.07 0.09 0.10 0.09 0.09 0.12 0.15 0.28 0.60 0.80 0.76 0.73 0.70 0.56 0.54 0.62 0.72 0.73 0.88 0.99 0.95 0.94 0.92 0.99 1.12 1.14 1.28 1.43 1.48 1.61 1.68 1.74 1.86 1.92 1.96 1.99 1.97 1.97 1.96 1.97
0.04 0.04 0.05 0.08 0.09 0.09 0.12 0.14 0.13 0.12 0.11 0.18 0.31 0.47 0.45 0.53 0.62 0.57 0.59 0.70 0.79 0.63 0.70 0.91 0.98 1.01 0.81 0.87 0.95 1.07 1.25 1.36 1.42 1.61 1.76 1.82 1.97 2.02 1.95 1.98 2.17 2.17 2.11 2.07
0.03 0.04 0.08 0.14 0.18 0.13 0.10 0.10 0.13 0.13 0.13 0.13 0.21 0.40 0.39 0.45 0.57 0.57 0.67 0.77 0.75 0.72 0.72 0.87 0.97 0.89 0.80 0.81 0.89 0.93 1.06 1.21 1.32 1.48 1.65 1.89 1.98 2.04 2.20 2.36 2.52 2.54 2.42 2.36
0.04 0.03 0.07 0.15 0.23 0.26 0.19 0.13 0.13 0.13 0.13 0.13 0.17 0.31 0.38 0.51 0.60 0.62 0.68 0.81 0.76 0.70 0.69 0.71 0.86 0.91 0.83 0.79 0.82 0.87 1.01 1.16 1.34 1.63 1.84 2.03 2.26 2.43 2.58 2.59 2.68 2.69 2.63 2.60
0.03 0.02 0.04 0.07 0.11 0.16 0.17 0.13 0.12 0.11 0.10 0.13 0.18 0.29 0.39 0.50 0.60 0.67 0.71 0.69 0.69 0.64 0.66 0.80 0.92 1.07 1.06 0.98 0.90 0.94 1.17 1.40 1.63 1.92 2.05 2.12 2.24 2.43 2.70 2.93 2.93 2.85 2.76 2.66
0.05 0.05 0.06 0.07 0.10 0.13 0.12 0.12 0.11 0.09 0.09 0.11 0.17 0.30 0.42 0.54 0.60 0.56 0.60 0.60 0.64 0.73 0.79 0.94 1.06 1.19 1.29 1.32 1.29 1.32 1.47 1.74 2.06 2.37 2.52 2.66 2.76 2.88 3.02 3.11 3.17 3.22 3.16 3.08
0.16 0.16 0.15 0.15 0.15 0.17 0.15 0.15 0.14 0.13 0.14 0.16 0.22 0.32 0.47 0.61 0.59 0.65 0.68 0.66 0.77 0.86 0.95 1.06 1.16 1.23 1.38 1.42 1.50 1.69 1.87 2.10 2.34 2.53 2.66 2.78 2.89 3.05 3.21 3.30 3.36 3.22 3.17 3.11
0.36 0.34 0.27 0.22 0.27 0.31 0.22 0.25 0.26 0.28 0.31 0.34 0.36 0.43 0.52 0.65 0.66 0.73 0.77 0.76 0.77 0.90 1.09 1.12 1.19 1.29 1.39 1.52 1.70 1.89 2.04 2.17 2.49 2.72 2.82 2.88 2.93 3.02 3.23 3.44 3.36 3.19 3.16 3.10
0.44 0.51 0.48 0.37 0.36 0.38 0.38 0.34 0.35 0.46 0.58 0.52 0.66 0.73 0.70 0.74 0.81 0.86 0.88 1.00 1.01 0.99 1.07 1.16 1.27 1.35 1.48 1.55 1.61 1.62 1.75 1.96 2.21 2.45 2.64 2.66 2.81 3.00 3.11 3.15 3.18 3.26 3.23 3.02
0.37 0.42 0.51 0.53 0.56 0.55 0.55 0.52 0.41 0.48 0.85 0.83 0.91 1.00 0.95 0.99 1.23 1.16 0.91 0.90 1.02 1.09 1.12 1.24 1.38 1.43 1.42 1.45 1.49 1.57 1.73 1.96 2.18 2.39 2.60 2.78 2.94 3.10 3.13 3.16 3.30 3.37 3.34 3.30
0.57 0.58 0.58 0.60 0.65 0.64 0.55 0.50 0.52 0.89 1.18 1.14 1.21 1.24 1.16 1.20 1.27 1.22 1.06 0.98 0.98 1.03 1.08 1.18 1.34 1.50 1.50 1.48 1.65 1.83 1.97 2.13 2.32 2.45 2.55 2.69 2.89 3.12 3.37 3.55 3.48 3.49 3.47 3.39
0.80 0.81 0.79 0.83 1.03 1.15 0.83 0.76 1.00 1.19 0.95 1.00 1.18 1.39 1.41 1.34 1.27 1.23 1.14 1.09 1.02 0.96 1.02 1.21 1.35 1.48 1.62 1.71 1.86 2.02 2.07 2.14 2.36 2.57 2.67 2.74 2.94 3.02 3.17 3.45 3.47 3.40 3.40 3.31
0.93 1.04 1.13 1.17 1.35 1.22 1.03 1.04 0.99 1.07 1.24 1.29 1.39 1.59 1.62 1.47 1.34 1.37 1.31 1.21 1.14 1.07 1.10 1.23 1.37 1.51 1.60 1.80 1.98 2.13 2.21 2.27 2.38 2.53 2.71 2.91 3.02 3.08 3.21 3.38 3.44 3.43 3.35 3.22
0.97 0.85 1.08 1.39 1.53 1.34 1.18 1.14 1.09 1.14 1.34 1.42 1.41 1.45 1.49 1.46 1.40 1.54 1.57 1.43 1.40 1.37 1.33 1.37 1.46 1.56 1.63 1.71 1.93 2.13 2.26 2.31 2.42 2.51 2.58 2.74 2.90 3.04 3.20 3.23 3.09 2.97 2.83 2.77
1.06 1.08 1.30 1.72 1.89 1.79 1.57 1.42 1.33 1.34 1.30 1.39 1.34 1.37 1.39 1.44 1.46 1.53 1.66 1.69 1.64 1.52 1.43 1.48 1.57 1.68 1.72 1.74 1.82 2.06 2.27 2.36 2.41 2.54 2.61 2.60 2.62 2.71 2.87 2.95 2.90 2.77 2.60 2.47
1.18 1.41 1.78 2.18 2.12 2.20 2.03 1.67 1.47 1.54 1.52 1.47 1.42 1.49 1.54 1.55 1.53 1.57 1.72 1.75 1.73 1.64 1.56 1.59 1.63 1.67 1.70 1.80 1.92 2.01 2.29 2.56 2.65 2.63 2.50 2.42 2.33 2.33 2.40 2.43 2.46 2.59 2.48 2.47